Cloud_Cover
100 100 100 86 100 100 100 98 80 98 100 100 100 100 100 59 5 1 5 3 0 0 0 0 0 1 0 5 50 100 100 100 100 100 100 100 100 100 100 100 100 100 100
66 99 100 100 100 100 100 100 100 53 82 93 100 14 6 3 5 3 13 1 0 0 0 0 0 0 0 5 63 99 100 100 100 87 100 100 82 100 100 100 100 100 100
0 16 4 4 3 21 86 100 98 59 88 86 100 1 4 5 2 0 0 2 6 6 0 0 0 0 2 4 5 28 99 100 100 100 100 100 100 100 100 100 100 100 100
0 0 2 3 3 4 0 2 0 0 0 2 1 7 4 1 0 0 0 0 0 0 0 0 0 0 4 2 5 5 5 92 100 100 100 100 100 60 85 64 99 100 100
0 34 3 1 0 0 0 0 4 0 4 0 0 0 0 0 1 4 4 0 0 1 0 0 3 3 4 5 4 5 9 83 100 100 100 98 100 100 100 100 100 65 99
0 0 5 37 14 5 5 5 5 5 1 0 0 0 0 5 3 2 0 3 5 4 3 4 38 77 5 5 2 53 16 5 49 100 100 100 100 100 100 100 100 100 100
3 3 3 4 2 4 5 4 2 0 0 0 0 0 1 4 5 5 4 4 1 5 5 4 4 5 4 0 0 3 4 5 93 62 76 84 94 100 100 38 100 100 86
0 1 5 5 5 5 3 18 12 0 0 0 0 0 5 6 4 5 2 1 0 5 5 10 45 81 6 2 0 0 3 4 5 6 5 6 77 100 100 100 100 100 100
0 0 2 2 1 5 5 3 2 0 2 3 4 55 89 6 4 5 5 0 3 3 67 3 0 0 1 0 0 4 4 1 13 6 5 5 5 25 97 100 100 100 100
0 0 0 0 2 1 5 3 0 0 0 0 4 67 1 1 2 2 0 5 98 6 14 5 5 5 0 0 2 96 44 0 0 2 3 3 5 5 21 11 5 9 61
0 0 0 0 0 0 0 0 0 0 0 0 0 0 0 3 5 5 0 0 5 87 15 0 1 2 4 5 7 4 3 21 9 12 5 5 5 40 34 59 60 24 4
0 0 0 0 0 0 0 0 0 0 0 0 0 0 0 1 0 0 1 0 1 0 0 1 3 5 5 12 5 30 6 73 63 91 74 90 96 100 100 100 99 17 19
0 0 0 0 0 0 0 0 0 0 0 0 3 4 3 0 0 0 0 0 0 0 0 5 5 17 11 17 36 27 29 100 100 100 100 100 100 99 100 100 100 100 99
0 0 0 0 0 0 0 0 0 0 2 0 0 0 0 0 2 2 2 0 0 5 1 7 90 100 97 44 67 100 100 100 100 100 100 89 98 87 100 100 100 100 81
0 0 0 0 0 0 0 0 0 4 2 0 2 3 5 5 5 5 5 2 2 5 5 72 56 99 96 100 91 93 97 99 100 100 67 78 100 98 61 98 100 99 100
0 0 0 0 0 1 0 0 0 0 0 0 1 0 0 2 5 5 2 5 5 5 61 100 76 12 89 100 89 46 6 12 73 81 61 42 12 35 98 97 100 85 59
3 0 0 0 0 0 0 0 4 0 0 0 2 0 5 5 4 1 5 5 14 5 87 98 5 38 100 67 25 5 5 6 5 31 49 94 90 74 100 100 100 95 76
0 3 0 8 5 1 5 1 0 0 0 0 0 5 5 5 5 5 5 5 5 57 94 92 28 100 98 100 6 27 5 15 68 76 100 100 86 100 100 100 98 99 3
0 0 5 8 94 22 5 4 0 0 0 0 0 4 2 5 8 20 5 4 5 26 91 16 98 99 92 55 14 69 94 100 100 97 100 100 100 100 100 100 98 95 10
0 0 2 4 6 9 5 2 1 0 0 0 0 0 4 5 4 47 15 5 5 46 42 42 100 82 5 5 14 27 76 100 100 100 100 100 100 99 100 98 100 78 89
0 0 0 2 0 0 5 5 0 0 0 0 0 0 0 0 1 0 0 0 5 5 34 75 67 100 72 10 5 8 68 100 100 100 100 91 92 46 92 100 99 74 100
4 0 0 0 0 0 0 8 28 0 0 5 0 0 0 0 0 0 1 5 7 38 5 15 5 18 46 65 36 9 56 100 100 100 100 73 82 95 71 20 100 49 100
50 5 0 0 0 0 0 0 2 5 0 0 2 4 0 0 0 2 4 4 14 45 20 5 9 6 10 89 99 93 100 100 100 100 100 86 79 100 99 98 99 98 100
5 5 1 0 0 0 0 0 1 2 5 1 0 0 5 0 0 0 0 3 0 5 33 5 84 65 54 86 96 99 99 92 100 100 100 95 8 94 100 88 100 100 100
17 3 0 3 6 3 0 0 1 5 53 6 4 0 0 21 3 0 0 0 0 5 5 5 76 90 64 55 100 99 89 100 100 82 41 48 5 99 99 100 100 100 100
92 9 0 22 5 1 0 1 0 3 10 5 5 7 21 92 86 0 0 0 0 5 3 5 43 19 100 96 100 100 72 100 100 29 5 75 20 100 98 100 100 100 100